"Time","Temp","Dewpoint","Humidity","Pressure","Direction","Speed","Gust","Precip","PrecipRate"
"00:04:59","74.1","67.5","79.8","29.96","290","0.2","2.4","0.00","0.00"
"00:09:59","73.9","67.8","81.3","29.96","290","1.5","3.6","0.00","0.00"
"00:14:57","73.8","67.9","81.7","29.96","307","2.6","6","0.00","0.00"
"00:19:57","73.8","67.6","81","29.96","335","0.6","5.8","0.00","0.00"
"00:24:57","73.9","67.7","81","29.96","336","0.3","2.4","0.00","0.00"
"00:29:57","73.8","67.6","81","29.96","336","0.2","2.4","0.00","0.00"
"00:34:57","73.7","67.5","81","29.96","336","0.2","2.4","0.00","0.00"
"00:39:58","73.5","67.4","81.1","29.96","336","0.4","3.6","0.00","0.00"
"00:44:58","73.3","67.5","82","29.96","335","0.9","3.5","0.00","0.00"
"00:49:59","73.3","67.5","82","29.96","335","1","3.6","0.00","0.00"
"00:54:59","73.3","67.5","82","29.96","335","0.7","3.6","0.00","0.00"
"00:59:59","73.3","67.5","82","29.96","335","0.5","3.6","0.00","0.00"
"01:04:59","73.3","67.5","82","29.96","335","0.6","3.6","0.00","0.00"
"01:09:58","73.2","67.4","82","29.96","335","0.2","1.2","0.00","0.00"
"01:14:59","73.1","67.3","82","29.96","335","0.1","1.2","0.00","0.00"
"01:19:56","73.1","67.4","82.5","29.96","335","0","1.2","0.00","0.00"
"01:24:56","73","67.3","82.4","29.96","335","0.6","2.4","0.00","0.00"
"01:29:56","72.9","67.4","83","29.96","335","0.7","2.4","0.00","0.00"
"01:34:57","72.8","67.3","83","29.96","335","0.1","2.4","0.00","0.00"
"01:39:58","72.6","67.1","83","29.96","335","0.4","2.4","0.00","0.00"
"01:44:58","72.5","67.3","83.5","29.96","335","0","1.2","0.00","0.00"
"01:49:59","72.5","67.1","83.2","29.95","335","0.1","2.4","0.00","0.00"
"01:54:56","72.5","67.2","83.4","29.95","335","0","1.2","0.00","0.00"
"01:59:56","72.5","67.4","84","29.95","335","0","0","0.00","0.00"
"02:04:57","72.4","67.3","84","29.95","335","0","0","0.00","0.00"
"02:09:56","72.2","67.1","84","29.95","335","0","0","0.00","0.00"
"02:14:57","72","66.9","84","29.95","335","0","0","0.00","0.00"
"02:19:57","71.8","66.8","84.5","29.95","335","0","0","0.00","0.00"
"02:24:58","71.6","66.8","85","29.95","335","0","0","0.00","0.00"
"02:29:58","71.3","66.6","85","29.95","335","0","0","0.00","0.00"
"02:34:59","71.1","66.7","85.7","29.94","335","0","0","0.00","0.00"
"02:39:56","71","66.6","86","29.94","335","0","0","0.00","0.00"
"02:44:56","70.8","66.4","86","29.95","335","0","0","0.00","0.00"
"02:49:57","70.6","66.5","86.9","29.95","335","0","0","0.00","0.00"
"02:54:57","70.5","66.4","87","29.95","335","0","0","0.00","0.00"
"02:59:58","70.3","66.4","87.6","29.95","335","0","0","0.00","0.00"
"03:04:56","70.2","66.5","88","29.95","335","0","0","0.00","0.00"
"03:09:58","70.1","66.4","88","29.95","335","0","0","0.00","0.00"
"03:14:55","69.9","66.2","88","29.95","335","0","0","0.00","0.00"
"03:19:57","69.9","66.5","88.9","29.94","335","0","0","0.00","0.00"
"03:24:57","69.8","66.4","89","29.94","335","0","0","0.00","0.00"
"03:29:57","69.7","66.3","89","29.94","335","0","0","0.00","0.00"
"03:34:59","69.6","66.2","89.1","29.93","335","0","0","0.00","0.00"
"03:39:56","69.5","66.2","89.3","29.93","335","0","0","0.00","0.00"
"03:44:57","69.3","66.2","90","29.94","335","0","0","0.00","0.00"
"03:49:57","69.1","66.2","90.4","29.94","335","0","0","0.00","0.00"
"03:54:57","69","66.3","91","29.94","335","0.6","2.4","0.00","0.00"
"03:59:59","68.9","66.2","91","29.95","335","0","1.2","0.00","0.00"
"04:04:57","68.8","66.1","91","29.95","335","0","0","0.00","0.00"
"04:09:56","68.6","65.9","91","29.95","335","0","0","0.00","0.00"
"04:14:58","68.5","65.8","91","29.95","335","0","0","0.00","0.00"
"04:19:56","68.3","65.6","91","29.94","335","0","0","0.00","0.00"
"04:24:57","68","65.5","91.7","29.94","335","0","0","0.00","0.00"
"04:29:58","67.8","65.4","92","29.95","335","0","0","0.00","0.00"
"04:34:59","67.8","65.6","92.7","29.95","335","0","0","0.00","0.00"
"04:39:56","67.7","65.6","93","29.95","335","0","0","0.00","0.00"
"04:44:56","67.7","65.6","93","29.95","335","0","0","0.00","0.00"
"04:49:57","67.6","65.5","93","29.95","335","0","0","0.00","0.00"
"04:54:57","67.5","65.4","93","29.95","335","0","0","0.00","0.00"
"04:59:58","67.4","65.3","93","29.95","335","0","0","0.00","0.00"
"05:04:57","67.2","65.1","93","29.95","335","0","0","0.00","0.00"
"05:09:56","67.1","65","93","29.95","335","0","0","0.00","0.00"
"05:14:57","67","64.9","93","29.95","335","0","0","0.00","0.00"
"05:19:57","67","64.9","93","29.95","335","0","0","0.00","0.00"
"05:24:58","66.9","65","93.8","29.95","335","0","0","0.00","0.00"
"05:29:58","66.8","65","94","29.95","335","0","0","0.00","0.00"
"05:34:58","66.7","64.9","94","29.94","335","0","0","0.00","0.00"
"05:39:56","66.6","64.8","94","29.94","335","0","0","0.00","0.00"
"05:44:56","66.5","64.7","94","29.94","335","0","0","0.00","0.00"
"05:49:57","66.4","64.6","94","29.94","335","0","0","0.00","0.00"
"05:54:57","66.2","64.4","94","29.94","335","0","0","0.00","0.00"
"05:59:58","66.1","64.4","94.4","29.94","335","0","0","0.00","0.00"
"06:04:58","66.1","64.6","95","29.94","335","0","0","0.00","0.00"
"06:09:57","66.1","64.6","95","29.94","335","0","0","0.00","0.00"
"06:14:58","66.1","64.6","95","29.94","335","0","0","0.00","0.00"
"06:19:59","66.1","64.6","95","29.94","335","0","0","0.00","0.00"
"06:24:56","66.1","64.6","95","29.94","335","0","0","0.00","0.00"
"06:29:56","66.1","64.6","95","29.94","335","0","0","0.00","0.00"
"06:34:56","66.2","64.7","95","29.94","335","0","0","0.00","0.00"
"06:39:57","66.2","64.7","95","29.94","5","0","1.2","0.00","0.00"
"06:44:56","66.2","64.7","95","29.94","5","0","0","0.00","0.00"
"06:49:59","66.2","64.7","95","29.94","5","0","0","0.00","0.00"
"06:54:59","66.3","64.8","95","29.94","5","0","0","0.00","0.00"
"06:59:58","66.3","64.8","95","29.95","5","0","0","0.00","0.00"
"07:04:57","66.5","65","95","29.95","5","0","0","0.00","0.00"
"07:09:56","66.7","65.2","95","29.95","5","0","0","0.00","0.00"
"07:14:56","66.8","65.4","95.2","29.95","5","0","0","0.00","0.00"
"07:19:59","67","65.8","96","29.95","5","0","0","0.00","0.00"
"07:24:58","67.3","65.9","95.3","29.95","5","0","0","0.00","0.00"
"07:29:58","67.7","66.5","96","29.96","5","0.3","2.4","0.00","0.00"
"07:34:57","68.2","66.7","95","29.96","5","1","2.4","0.00","0.00"
"07:39:58","68.9","67","93.7","29.96","5","0.6","2.4","0.00","0.00"
"07:44:56","69.6","67.3","92.4","29.97","5","1.6","3.6","0.00","0.00"
"07:49:56","70.3","67.6","90.9","29.97","5","0.8","3.6","0.00","0.00"
"07:54:56","71","67.9","89.8","29.97","358","1.4","3.6","0.00","0.00"
"07:59:56","71.6","68.1","88.7","29.98","325","1.9","6","0.00","0.00"
"08:04:59","72","68","87.4","29.98","342","2.4","7.2","0.00","0.00"
"08:09:57","72.2","68.2","87.3","29.98","336","1.4","4.8","0.00","0.00"
"08:14:57","72.3","68.2","87","29.98","332","1.4","3.6","0.00","0.00"
"08:19:57","72.5","68.1","86.1","29.98","332","1.6","3.6","0.00","0.00"
"08:24:56","72.8","68.3","85.8","29.98","324","1.1","3.6","0.00","0.00"
"08:29:56","73.1","68.2","84.5","29.98","332","1.2","4.8","0.00","0.00"
"08:34:58","73.6","68.5","83.9","29.98","330","0.9","3.6","0.00","0.00"
"08:39:58","74.2","68.6","82.9","29.98","329","1.6","4.8","0.00","0.00"
"08:44:57","74.7","69.1","82.5","29.98","330","1.9","4.8","0.00","0.00"
"08:49:57","75.3","69.2","81.2","29.98","330","3.1","4.8","0.00","0.00"
"08:54:56","75.8","69.3","80.3","29.98","324","2.1","6","0.00","0.00"
"08:59:59","76.3","69.8","80.6","29.98","322","0.6","6","0.00","0.00"
"09:04:59","76.6","69.2","78","29.98","327","2.6","6","0.00","0.00"
"09:09:57","76.9","69.8","78.7","29.98","327","1.4","4.8","0.00","0.00"
"09:14:57","77.3","69.6","77.3","29.99","340","1.9","4.8","0.00","0.00"
"09:19:57","77.7","70","77.2","29.99","232","0.7","3.5","0.00","0.00"
"09:24:58","78.2","69.7","75.1","29.99","302","2","7.2","0.00","0.00"
"09:29:57","78.5","69.4","73.8","29.99","324","1.2","6","0.00","0.00"
"09:34:57","78.8","69.4","72.8","29.99","336","3.1","8.4","0.00","0.00"
"09:39:58","79.1","69.1","71.5","29.99","299","1","4.8","0.00","0.00"
"09:44:58","79.3","68.8","70.2","29.99","339","1.7","4.8","0.00","0.00"
"09:49:59","79.6","69.3","70.7","29.99","353","2","8.4","0.00","0.00"
"09:54:58","79.9","69.4","70.5","29.99","348","2.4","6","0.00","0.00"
"09:59:59","80.1","70","71.4","29.99","348","0.9","5.8","0.00","0.00"
"10:04:59","80.5","70.5","71.6","29.99","347","1.1","4.8","0.00","0.00"
"10:09:59","81","69.9","69","29.99","272","2.1","6","0.00","0.00"
"10:14:59","81.2","70.3","69.5","29.99","302","1.2","4.8","0.00","0.00"
"10:19:56","81.6","70.3","68.8","29.99","256","2.2","8.4","0.00","0.00"
"10:24:56","81.4","70","68.5","29.99","335","3.6","8.4","0.00","0.00"
"10:29:57","81.2","69.7","68.3","29.99","329","4.6","12","0.00","0.00"
"10:34:58","81.1","69.8","68.6","29.99","345","1.8","8.4","0.00","0.00"
"10:39:56","81.3","69.5","67.3","29.99","316","3.1","8.1","0.00","0.00"
"10:44:57","81.7","69.7","67","30.00","246","2.9","6","0.00","0.00"
"10:49:58","82","69.2","65.4","30.00","315","3.1","7.2","0.00","0.00"
"10:54:59","82","68.7","64.1","30.00","302","2.9","7.2","0.00","0.00"
"10:59:56","82","68.7","64.2","30.01","292","3.1","12","0.00","0.00"
"11:04:56","82.1","68.8","64.3","30.01","1","2.8","13.2","0.00","0.00"
"11:09:56","82.4","69.4","65.1","30.01","335","3.2","12.7","0.00","0.00"
"11:14:57","83.1","70.1","65.2","30.01","330","1.4","6","0.00","0.00"
"11:19:59","83.1","69.9","64.3","30.01","338","4.3","12","0.00","0.00"
"11:24:56","83.1","70.3","65.5","30.01","229","2.6","8.4","0.00","0.00"
"11:29:57","83.3","69.7","63.8","30.01","280","3.8","10.8","0.00","0.00"
"11:34:58","83.9","70.3","63.6","30.01","238","2.8","6.9","0.00","0.00"
"11:39:56","84.1","70.2","63.2","30.01","203","3.8","10.8","0.00","0.00"
"11:44:57","83.9","69.7","62.4","30.01","273","2.8","7.2","0.00","0.00"
"11:49:58","83.7","69.6","62.7","30.00","254","4.1","13.2","0.00","0.00"
"11:54:59","84.1","68.8","60.2","30.00","329","2.6","7.2","0.00","0.00"
"11:59:56","84.7","69","59.5","30.00","250","3","6","0.00","0.00"
"12:04:57","85.2","69.8","60.2","30.00","274","3.8","16.1","0.00","0.00"
"12:09:56","85.3","69.8","60","30.00","334","3.1","12","0.00","0.00"
"12:14:57","85.2","66.9","54.5","30.00","327","3.4","11.5","0.00","0.00"
"12:15:45","85.3","66.4","53.2","30.00","207","3.6","6","0.00","0.00"
"12:34:56","84.6","66.7","55","30.00","298","2.7","5.8","0.00","0.00"
"12:39:58","84.7","66.3","54.1","30.00","333","2.9","10.8","0.00","0.00"
"12:41:53","84.7","65.7","52.9","30.00","351","2.4","6","0.00","0.00"
"12:54:57","85.4","67.9","55.9","30.00","198","3.5","5.8","0.00","0.00"
"12:59:58","85.1","68.2","57.1","30.00","321","2.3","7.2","0.00","0.00"
"13:04:58","85.3","68.9","58","29.99","345","2.8","8.4","0.00","0.00"
"13:09:58","85.6","68.4","56.6","29.99","324","2.7","8.4","0.00","0.00"
"13:14:56","84.8","68.1","57.4","30.00","318","3.5","8.1","0.00","0.00"
"13:19:58","84.2","68.1","58.7","30.00","324","3.3","12","0.00","0.00"
"13:24:59","83.7","67","57.4","30.00","322","3.4","12","0.00","0.00"
"13:29:56","83.7","67.4","58","30.00","267","2","7.2","0.00","0.00"
"13:34:57","84","67.1","56.9","30.00","296","3.2","10.8","0.00","0.00"
"13:39:59","83.7","66.8","56.9","30.00","305","3.5","8.4","0.00","0.00"
"13:44:56","84.3","67.4","57","30.00","331","2.7","7.2","0.00","0.00"
"13:49:57","85.3","67.7","55.7","29.99","234","3.7","8.4","0.00","0.00"
"13:54:58","86.2","67.8","54.3","29.99","257","3.5","8.4","0.00","0.00"
"13:59:59","86","66.7","52.6","29.99","212","4.7","9.6","0.00","0.00"
"14:04:56","86","66.2","51.8","29.98","299","3.3","7.2","0.00","0.00"
"14:09:59","86","66.5","52.3","29.98","332","3","8.4","0.00","0.00"
"14:14:57","85.6","65.8","51.8","29.98","298","2.9","6.9","0.00","0.00"
"14:19:56","85.6","65.8","51.7","29.98","205","4","7.2","0.00","0.00"
"14:24:57","86.1","66.5","52.3","29.98","251","3","12","0.00","0.00"
"14:29:58","86","67","53.1","29.98","248","3.2","10.4","0.00","0.00"
"14:34:59","86.5","67","52.4","29.97","333","4.1","13.2","0.00","0.00"
"14:39:57","86.4","66.7","52.1","29.97","345","4.7","12.7","0.00","0.00"
"14:44:58","86.8","67","51.8","29.97","328","4.3","10.8","0.00","0.00"
"14:49:59","86.7","67.4","52.9","29.97","320","3.2","8.4","0.00","0.00"
"14:54:56","86.9","67.8","53.2","29.97","253","2.8","6","0.00","0.00"
"14:59:57","87","67.4","52.3","29.97","316","3.5","8.4","0.00","0.00"
"15:04:58","87.2","67","51.2","29.97","320","4.1","10.8","0.00","0.00"
"15:09:57","86.7","66.1","50.5","29.97","333","5.3","13.2","0.00","0.00"
"15:14:59","86.9","66.7","51.2","29.97","347","4.3","8.4","0.00","0.00"
"15:19:56","86.9","66.3","50.5","29.96","322","2.7","6.9","0.00","0.00"
"15:24:57","87.3","66.7","50.6","29.96","325","3.8","9.6","0.00","0.00"
"15:29:58","87.6","67.8","52","29.97","325","2.8","6","0.00","0.00"
"15:34:59","87.9","68","51.9","29.97","325","2.2","7.2","0.00","0.00"
"15:39:57","88.3","67.5","50.3","29.97","238","2.9","7.2","0.00","0.00"
"15:44:58","88.8","68","50.4","29.97","279","3.3","7.2","0.00","0.00"
"15:49:59","88.6","67.4","49.8","29.97","252","4.8","13.2","0.00","0.00"
"15:54:56","88","67","50.1","29.97","322","4.2","8.4","0.00","0.00"
"15:59:57","88.3","68.2","51.6","29.97","219","3.1","8.4","0.00","0.00"
"16:04:58","88.6","68.4","51.5","29.96","218","3","6","0.00","0.00"
"16:09:57","88.4","67.5","50.2","29.96","225","3.1","7.2","0.00","0.00"
"16:14:59","87.9","67.1","50.4","29.96","240","2.4","4.8","0.00","0.00"
"16:19:56","87.9","67.4","50.9","29.95","345","3.4","10.8","0.00","0.00"
"16:24:57","88.3","67.9","50.9","29.95","296","2.7","7.2","0.00","0.00"
"16:29:58","88.6","67.5","50","29.95","306","1.9","7.2","0.00","0.00"
"16:34:59","88.6","67","48.9","29.95","327","2.4","6.9","0.00","0.00"
"16:39:57","88.9","67.6","49.6","29.95","322","2.6","6","0.00","0.00"
"16:44:58","89","67.4","49.1","29.95","340","2.3","6","0.00","0.00"
"16:49:56","88.9","67.7","49.6","29.95","345","2.6","6","0.00","0.00"
"16:54:57","89","67.5","49.3","29.95","326","2.5","6","0.00","0.00"
"16:59:58","88.9","67.5","49.3","29.95","315","1.6","4.8","0.00","0.00"
"17:04:59","88.9","67.6","49.5","29.95","316","1.6","6","0.00","0.00"
"17:09:58","89","67.9","50","29.95","308","1.2","4.8","0.00","0.00"
"17:14:56","88.9","67.7","49.6","29.95","313","1.5","4.8","0.00","0.00"
"17:19:57","89","68.1","50.4","29.94","264","1.8","4.8","0.00","0.00"
"17:24:58","89.1","67.9","49.7","29.94","275","1.7","4.8","0.00","0.00"
"17:29:56","89.1","67.8","49.5","29.94","295","1.7","4.6","0.00","0.00"
"17:34:56","89","68.1","50.3","29.94","296","0.6","3.5","0.00","0.00"
"17:39:59","88.8","68.4","51.1","29.94","231","1.9","4.8","0.00","0.00"
"17:44:59","88.9","68.3","50.8","29.94","226","1.5","3.6","0.00","0.00"
"17:49:57","88.9","68.4","50.9","29.94","281","2.2","4.8","0.00","0.00"
"17:54:58","88.7","68.5","51.4","29.94","307","1.8","4.6","0.00","0.00"
"17:59:59","88.6","68","50.6","29.94","199","1.6","6","0.00","0.00"
"18:04:59","88.5","67.6","50.2","29.94","181","1.8","3.6","0.00","0.00"
"18:09:59","88.4","67.4","50","29.94","182","1.9","4.8","0.00","0.00"
"18:14:56","88.2","68","51.3","29.94","182","1.5","3.6","0.00","0.00"
"18:19:58","88.1","67.9","51.3","29.93","182","2","4.8","0.00","0.00"
"18:24:59","88","67.6","51","29.93","183","1.6","4.6","0.00","0.00"
"18:29:56","87.7","67.1","50.6","29.93","183","1.6","4.8","0.00","0.00"
"18:34:57","87.5","67.1","51","29.93","183","1.7","3.6","0.00","0.00"
"18:39:59","87.4","67.3","51.4","29.93","183","1.7","3.6","0.00","0.00"
"18:44:59","87.5","67.7","52","29.93","183","1.5","3.6","0.00","0.00"
"18:49:57","87.4","67.5","51.8","29.93","188","1.9","4.8","0.00","0.00"
"18:54:58","87.1","67.4","52","29.93","219","2","4.8","0.00","0.00"
"18:59:59","86.9","67.3","52.3","29.93","207","2.6","6","0.00","0.00"
"19:04:55","86.6","67.1","52.4","29.93","212","3","7.2","0.00","0.00"
"19:09:59","86.2","66.6","52.3","29.93","198","3.4","7.2","0.00","0.00"
"19:14:57","86","66.3","52","29.93","198","3.6","6","0.00","0.00"
"19:19:58","85.8","66.1","52","29.93","192","2.9","6","0.00","0.00"
"19:24:56","85.7","66.6","53","29.93","192","1.7","3.6","0.00","0.00"
"19:29:57","85.6","66.7","53.3","29.93","192","1.9","6","0.00","0.00"
"19:34:58","85.5","66.8","53.8","29.93","192","1.7","5.8","0.00","0.00"
"19:39:56","85.3","66.8","54","29.93","195","1.3","3.6","0.00","0.00"
"19:44:57","85","66.8","54.4","29.94","195","1.3","3.6","0.00","0.00"
"19:49:58","84.8","66.9","55.1","29.94","195","0.9","2.4","0.00","0.00"
"19:54:59","84.6","66.7","55","29.94","195","0.9","2.4","0.00","0.00"
"19:59:57","84.5","67.1","55.9","29.94","195","1.2","2.4","0.00","0.00"
"20:04:58","84.2","67.4","57.2","29.94","195","1.2","3.6","0.00","0.00"
"20:09:57","83.8","67.5","58.1","29.94","195","0.1","1.2","0.00","0.00"
"20:14:58","83.3","67.5","58.9","29.94","195","0","1.2","0.00","0.00"
"20:19:56","82.7","68","61.3","29.94","195","0.1","1.2","0.00","0.00"
"20:24:57","82","67.4","61.4","29.94","195","0.2","2.4","0.00","0.00"
"20:29:59","81.3","67.3","62.7","29.95","195","0","0","0.00","0.00"
"20:34:57","80.6","67.3","64","29.95","195","0","0","0.00","0.00"
"20:39:59","79.9","66.9","64.4","29.95","195","0.1","1.2","0.00","0.00"
"20:44:57","79.5","67.2","66.2","29.95","195","0","0","0.00","0.00"
"20:49:59","79.1","67.3","67.2","29.95","195","0","0","0.00","0.00"
"20:54:56","78.8","66.9","67","29.95","195","0","0","0.00","0.00"
"20:59:57","78.5","66.6","67.2","29.96","195","0","0","0.00","0.00"
"21:04:57","78.3","66.9","68.1","29.96","195","0","0","0.00","0.00"
"21:09:59","78","67","69","29.96","195","0","0","0.00","0.00"
"21:14:56","77.7","66.7","69.1","29.96","195","0","0","0.00","0.00"
"21:19:57","77.5","67.2","70.6","29.96","195","0","0","0.00","0.00"
"21:24:57","77.5","67.2","70.7","29.96","195","0","0","0.00","0.00"
"21:29:58","77.3","67.2","71","29.96","195","0","0","0.00","0.00"
"21:34:58","77","67","71.2","29.96","195","0","0","0.00","0.00"
"21:39:56","76.8","67.3","72.5","29.96","195","0","0","0.00","0.00"
"21:44:56","76.5","67.3","73.3","29.97","195","0","0","0.00","0.00"
"21:49:57","76.2","67.4","74.1","29.97","195","0","0","0.00","0.00"
"21:54:58","76.2","67.6","74.8","29.97","195","0","0","0.00","0.00"
"21:59:59","76.1","67.4","74.6","29.98","195","0","0","0.00","0.00"
"22:04:58","75.9","67.4","75","29.98","195","0","0","0.00","0.00"
"22:09:57","75.7","67.5","75.8","29.98","195","0","0","0.00","0.00"
"22:14:58","75.5","67.4","76","29.98","195","0","0","0.00","0.00"
"22:19:59","75.3","67.5","76.8","29.98","195","0","0","0.00","0.00"
"22:24:59","75.3","67.8","77.4","29.98","195","0","0","0.00","0.00"
"22:29:56","75.4","67.9","77.7","29.98","195","0","0","0.00","0.00"
"22:34:56","75.4","68","77.8","29.98","195","0.7","2.4","0.00","0.00"
"22:39:58","75.4","67.7","77","29.98","195","1.1","2.4","0.00","0.00"
"22:44:58","75.4","67.7","77.2","29.99","195","0","1.2","0.00","0.00"
"22:49:59","75.2","67.9","78","29.99","195","0.3","1.2","0.00","0.00"
"22:54:59","75","67.7","78.1","29.99","195","0.6","2.4","0.00","0.00"
"22:59:56","74.8","67.8","78.8","29.99","195","0.9","2.4","0.00","0.00"
"23:04:56","74.8","67.8","79","29.99","195","0.1","1.2","0.00","0.00"
"23:09:58","74.6","67.8","79.5","29.99","195","0","0","0.00","0.00"
"23:14:59","74.2","67.5","79.7","29.99","195","0","0","0.00","0.00"
"23:19:56","74","67.4","80.2","29.98","195","0","0","0.00","0.00"
"23:24:56","73.8","67.6","81","29.98","195","0","0","0.00","0.00"
"23:29:57","73.7","67.5","81","29.98","195","0.1","1.2","0.00","0.00"
"23:34:58","73.7","67.7","81.5","29.98","195","0","0","0.00","0.00"
"23:39:59","73.6","67.4","81.1","29.98","195","0","0","0.00","0.00"
"23:44:59","73.4","67.6","82","29.98","195","0","0","0.00","0.00"
